Regional Weather Roundup
Issued by NWS

Home | Current Version | Previous Version | Graphics & Text | Print | Product List | Glossary Off
Versions: 1 2 3 4 5 6 7 8 9 10 11 12 13 14 15 16 17 18 19 20 21 22 23 24 25 26 27 28 29 30 31 32 33 34 35 36 37 38 39 40 41 42 43 44 45 46 47 48 49 50

000
ASUS43 KMKX 051900
RWRWI

WISCONSIN REGIONAL WEATHER ROUNDUP
NATIONAL WEATHER SERVICE MILWAUKEE/SULLIVAN WI
100 PM CST FRI FEB 05 2016

NOTE: "FAIR" INDICATES FEW OR NO CLOUDS BELOW 12,000 FEET WITH NO
SIGNIFICANT WEATHER AND/OR OBSTRUCTIONS TO VISIBILITY.

WIZ001-002-006>008-014>016-023>028-052000-
NORTHWEST WISCONSIN

CITY           SKY/WX    TMP DP  RH WIND       PRES   REMARKS
SUPERIOR ARPT  MOSUNNY   23  11  59 SW13      30.24F WCI  12
ASHLAND        CLOUDY    25  11  55 S10       30.24F WCI  15
HAYWARD        PTSUNNY   21   9  59 SW9       30.25F WCI  11
SIREN          CLOUDY    22  11  62 S7        30.26F WCI  13
CUMBERLAND     CLOUDY    19  12  73 S6        30.27F WCI  11
RICE LAKE      CLOUDY    20  11  66 S8        30.30F WCI  10
CHETEK         CLOUDY    20   9  62 S6        30.30F WCI  13
LADYSMITH      CLOUDY    21  12  68 S5        30.30S WCI  14
EAU CLAIRE     NOT AVBL
MENOMONIE      CLOUDY    25  16  69 SE6       30.32F WCI  18
NEW RICHMOND   CLOUDY    21  11  65 S9        30.29F WCI  10
OSCEOLA        CLOUDY    21  13  71 S8        30.32F WCI  11
$$

WIZ003>005-009-010-017-018-052000-
NORTH CENTRAL WISCONSIN

CITY           SKY/WX    TMP DP  RH WIND       PRES   REMARKS
MANITOWISH WTR PTSUNNY   21   7  55 SW3       30.22F
ARBOR VITAE    SUNNY     22   8  55 SW5       30.23F WCI  16
WOODRUFF       SUNNY     22   8  55 SW5       30.23F WCI  16
RHINELANDER    SUNNY     23   9  55 CALM      30.23F
EAGLE RIVER    PTSUNNY   21   7  53 W7        30.22F WCI  13
LAND O LAKES   CLOUDY    24  10  56 SW6       30.22F WCI  16
PHILLIPS       CLOUDY    21  10  62 CALM      30.24F
TOMAHAWK       SUNNY     23   8  51 CALM      30.25F
MEDFORD        MOSUNNY   18  11  71 S3        30.26F
MERRILL        SUNNY     23  11  59 W3        30.28F
$$

WIZ029-030-035-036-043>047-052000-
CENTRAL WISCONSIN

CITY           SKY/WX    TMP DP  RH WIND       PRES   REMARKS
WAUSAU         CLOUDY    24  11  57 NW5       30.26F WCI  18
MOSINEE        SUNNY     25  14  63 CALM      30.29S
MARSHFIELD     MOSUNNY   22  11  62 W6        30.28F WCI  14
STEVENS POINT  SUNNY     23  12  63 W6        30.31F WCI  16
WAUPACA        SUNNY     30  15  53 W8        30.31F WCI  22
WAUTOMA        NOT AVBL
WISC RAPIDS    SUNNY     25  13  60 W6        30.32F WCI  18
CAMP DOUGLAS   NOT AVBL
$$

WIZ011>013-019>022-031-037>040-048>050-052000-
NORTHEAST WISCONSIN

CITY           SKY/WX    TMP DP  RH WIND       PRES   REMARKS
ANTIGO         SUNNY     19  17  94 SW5       30.26S WCI  12
SHAWANO        SUNNY     29  14  52 W8        30.31S WCI  21
OCONTO         CLOUDY    24  12  60 NW5       30.31F WCI  19
STURGEON BAY   CLOUDY    23  10  58 W6        30.32F WCI  16
GREEN BAY      SUNNY     25  14  63 W5        30.32F WCI  19
MANITOWOC      NOT AVBL
APPLETON       MOSUNNY   27  12  54 W7        30.29F WCI  19
CLINTONVILLE   SUNNY     28  14  54 W6        30.31S WCI  22
OSHKOSH        SUNNY     25  15  66 W7        30.32F WCI  17
$$

WIZ032>034-041-042-053>061-052000-
SOUTHWEST WISCONSIN

CITY           SKY/WX    TMP DP  RH WIND       PRES   REMARKS
LA CROSSE      CLOUDY    22  13  68 S8        30.35F WCI  12
SPARTA         MOSUNNY   24  15  67 W5        30.35F WCI  18
VIROQUA        CLOUDY    23  14  69 W5        30.32F WCI  17
BOSCOBEL       MOSUNNY   28  16  60 S6        30.36F WCI  22
PRAIRIE DU CHI CLOUDY    26  13  57 SW3       30.37F
PLATTEVILLE    MOSUNNY   26  20  77 S6        30.35F WCI  20
$$

WIZ056-057-062-063-064-067-068-052000-
SOUTH CENTRAL WISCONSIN

CITY           SKY/WX    TMP DP  RH WIND       PRES   REMARKS
REEDSBURG      SUNNY     26  17  69 W6        30.34S WCI  19
BARABOO/DELLS  SUNNY     27  15  62 W5        30.33F WCI  21
LONE ROCK      NOT AVBL
MINERAL POINT  SUNNY     28  19  69 W6        30.33F WCI  22
MADISON        CLOUDY    28  15  58 VRB6      30.34F WCI  22
MIDDLETON      SUNNY     30  17  58 W5        30.35F WCI  25
WATERTOWN      SUNNY     27  17  65 W6        30.34F WCI  20
MONROE         SUNNY     30  19  64 W6        30.33F WCI  24
JANESVILLE     SUNNY     30  18  59 W6        30.35F WCI  24
$$

WIZ051-052-058>065-066-070>072-052000-
SOUTHEAST WISCONSIN

CITY           SKY/WX    TMP DP  RH WIND       PRES   REMARKS
MILWAUKEE      PTSUNNY   30  16  56 W10       30.33F WCI  21
WAUKESHA       SUNNY     27  18  69 W9        30.34F WCI  17
MILWAUKEE/TIMM NOT AVBL
RACINE         SUNNY     30  17  58 NW7       30.35F WCI  23
BURLINGTON     SUNNY     28  17  65 NW7       30.34F WCI  21
KENOSHA        SUNNY     30  19  63 W9        30.34F WCI  22
FOND DU LAC    SUNNY     25  15  66 VRB7      30.33F WCI  17
SHEBOYGAN      CLOUDY    25  14  63 W12       30.33S WCI  14
WEST BEND      SUNNY     28  14  54 W8        30.33S WCI  20
JUNEAU         SUNNY     24  15  69 SW5       30.35S WCI  18
$$

LSZ147-162-052000-
LAKE SUPERIOR

STATION/POSITION TIME  TEMP    WIND        PRES    WAVE
                       AIR SEA DIR/SP/G            HT/PER
                 (UTC) (F)     (DEG/KT/KT) (MB)    (FT/S)
DEVILS ISLAND    1800   21     220/  5/  7 1026.3F
SAXON HARBOR     1800   22                 1025.1F
$$

LMZ867-665-643>646-052000-
LAKE MICHIGAN

STATION/POSITION TIME  TEMP    WIND        PRES    WAVE
                       AIR SEA DIR/SP/G            HT/PER
                 (UTC) (F)     (DEG/KT/KT) (MB)    (FT/S)
CHAMBERS ISLAND  1800   27     240/  4/  8 1026.1F
ALGOMA LAKESHORE 1726          330/ 10/ 12   N/A
KEWAUNEE LAKESHO 1800   24     300/  9/ 11 1025.9F
SHEBOYGAN LAKESH 1800   25     340/  5/  6 1028.3F
PORT WASHINGTON  1800   29     280/  4/  8 1028.1
MILWAUKEE LAKESH 1810   29     280/  5/  6   N/A
KENOSHA   LAKESH 1800   28     300/  7/ 10 1027.4F
$$

TC  - TEMPERATURE IN CELSIUS
VSB - VISIBILITY IN STATUTE MILES
WCI - WIND CHILL INDEX
HX  - HEAT INDEX




USA.gov is the U.S. government's official web portal to all federal, state and local government web resources and services.